Location: Newark
(55.4390°N, 25.0170°E)
Time: 08:11:39
(UTC+00:00)

Envisat - Pass Details

Date: 01 October 2022
Orbit: 763 x 765 km, 98.2° (Epoch: 02 December)

Event Time Altitude Azimuth Distance (km) Brightness Sun altitude
Rises 01:50:11 0° 21° (NNE) 3,249 7.0 -21.7°
Reaches altitude 10° 01:52:50 10° 33° (NNE) 2,317 6.3 -21.3°
Maximum altitude 01:57:10 27° 92° (E) 1,433 5.0 -20.8°
Drops below altitude 10° 02:01:29 10° 150° (SSE) 2,302 5.5 -20.2°
Sets 02:04:06 0° 162° (SSE) 3,223 6.2 -19.9°
